Theta_e
311 312 313 314 316 317 317 318 319 318 317 312 310 313 304 302 300 304 309 314 312 305 297 299 297 296 299 301 300 300 297 297 298 298 297 295 297 296 295 295 293 292 293 291 290 291 288 287 287 287 287 286 289 289 289 290 291 293 288 290 289 292 285 281 280 281 280 283 284 284 283 287 287 285 281 283 283 284 284 284 281 279 277 276 273 276 281
309 310 311 312 313 314 315 316 317 318 315 313 312 308 303 302 299 300 308 313 312 301 291 291 294 297 297 299 299 299 298 297 294 297 298 296 295 295 293 294 297 294 293 291 290 293 288 290 289 288 288 289 289 289 290 293 292 293 291 289 293 287 285 284 277 277 278 280 284 286 286 285 282 280 280 281 281 279 278 277 275 277 278 279 276 276 282
308 308 309 310 311 312 313 314 315 316 317 312 312 304 301 298 299 299 303 307 306 298 300 296 295 295 295 296 295 295 295 297 299 298 297 297 296 295 293 297 295 293 294 293 292 293 293 287 290 289 287 289 288 289 291 294 292 291 292 295 295 289 286 284 279 278 276 276 276 279 281 283 282 281 280 281 284 281 280 279 275 277 279 280 277 279 284
307 308 308 308 309 308 307 308 308 308 309 308 305 301 299 296 290 295 297 302 300 299 298 298 298 295 295 294 295 297 294 295 296 299 297 299 297 297 294 294 297 292 293 290 291 291 292 291 288 288 288 288 288 288 287 291 292 291 294 293 293 287 285 286 286 284 283 284 281 282 283 281 281 280 280 281 279 280 281 275 275 278 278 280 283 284 280
307 307 307 308 307 306 306 306 306 306 306 306 302 298 298 296 291 291 288 297 297 295 298 295 297 295 298 291 295 293 295 295 294 299 294 298 297 294 295 294 293 291 293 291 291 292 291 289 287 288 287 286 287 288 287 287 289 293 291 290 289 285 286 287 287 287 288 283 282 283 286 285 284 282 281 281 280 279 281 280 278 281 278 277 285 283 280
306 306 305 306 306 306 306 306 305 305 304 305 303 296 296 291 292 295 297 292 288 291 292 296 295 296 298 292 295 294 293 294 291 295 297 296 298 294 292 294 296 294 293 293 288 290 290 289 289 287 286 287 289 288 288 288 289 291 289 288 289 286 286 287 284 284 285 282 283 282 283 284 283 283 283 282 281 278 279 280 283 282 281 280 284 282 280
305 304 304 304 304 304 305 305 305 305 304 304 300 295 293 294 291 292 296 291 291 293 294 296 295 294 295 291 293 291 293 292 295 293 291 294 293 297 289 292 295 295 295 293 289 290 286 286 289 287 288 287 286 286 288 288 285 287 287 288 285 288 286 286 285 285 285 284 283 283 284 282 282 282 283 284 282 280 281 282 283 282 282 284 284 281 281
305 304 304 304 304 303 303 303 304 303 304 302 296 293 292 289 291 288 292 291 288 290 293 294 294 292 294 288 290 292 292 293 294 292 293 288 292 296 293 294 295 295 293 294 290 291 292 291 287 290 289 286 286 286 286 286 286 286 287 288 288 289 284 288 284 284 284 285 282 282 283 282 282 283 283 281 280 280 280 280 279 280 279 281 280 281 281
305 305 304 304 304 303 302 302 302 302 303 297 294 291 292 292 290 294 291 288 288 289 290 292 292 291 292 289 290 291 292 291 295 293 296 294 291 293 293 295 293 292 293 293 293 296 294 292 290 291 291 289 290 289 287 289 286 286 285 286 286 287 283 282 283 282 283 280 279 278 278 277 278 279 281 278 279 277 278 277 279 279 279 280 278 277 279
306 305 304 304 304 303 302 302 302 301 303 295 294 290 294 292 293 293 293 286 290 286 287 290 290 286 290 291 291 290 289 293 294 289 294 294 295 295 296 295 292 288 291 291 294 294 291 291 291 292 291 291 289 292 289 292 289 285 287 286 285 286 281 279 278 280 281 278 277 276 276 277 278 279 280 280 281 282 278 279 280 282 283 279 278 279 283
306 305 305 304 304 304 303 302 301 301 300 294 291 289 291 290 290 290 291 286 286 287 287 286 286 289 291 292 291 292 291 292 294 289 287 291 291 290 296 295 292 288 290 292 290 291 290 289 287 289 289 289 287 287 289 289 290 289 287 283 281 283 284 283 284 280 276 273 275 277 277 272 276 283 285 282 280 280 279 280 281 280 282 280 281 280 277
306 306 305 304 304 304 304 303 302 301 300 296 295 291 292 293 291 290 287 285 285 287 287 285 287 289 289 292 292 291 291 291 292 294 289 288 288 288 293 293 293 286 290 289 291 291 291 290 290 289 287 286 286 287 288 288 287 288 289 287 282 284 284 283 281 277 272 273 275 274 270 275 280 278 279 282 283 282 281 282 282 280 278 278 276 276 276
307 306 305 305 304 304 304 303 302 300 299 294 295 291 292 293 292 289 287 285 284 285 284 285 289 289 289 291 290 291 292 292 292 293 293 291 287 288 289 290 292 291 290 290 292 291 286 283 283 283 283 284 284 285 284 285 284 285 286 286 286 283 284 280 276 275 273 271 274 270 272 276 276 276 275 277 277 277 276 275 276 276 277 278 277 279 280
306 306 306 305 305 304 304 304 303 301 299 297 292 291 291 292 290 288 287 285 285 286 287 286 285 287 288 288 289 288 289 288 287 290 290 289 291 290 287 287 288 290 289 293 289 287 284 283 280 282 280 281 281 282 282 281 281 282 284 284 284 286 284 282 278 280 271 274 273 276 278 277 277 272 274 276 276 275 276 273 276 279 276 276 275 277 278
306 306 306 306 305 304 304 304 304 302 299 298 292 291 290 291 292 290 287 286 283 283 285 283 285 286 287 286 288 286 286 285 287 285 283 284 284 284 285 285 285 289 289 290 285 285 283 280 275 277 274 276 273 277 279 277 278 279 281 282 283 285 284 283 280 277 277 272 272 271 271 272 278 281 276 279 279 279 278 278 271 275 270 277 276 276 277
305 306 306 306 306 305 304 304 304 303 300 299 292 290 290 291 290 289 287 286 285 281 283 287 285 286 286 285 287 287 285 285 285 285 283 283 282 284 284 285 285 286 286 285 285 284 282 280 274 278 273 276 277 275 273 275 275 277 280 281 282 282 283 282 282 277 274 273 273 272 272 273 279 277 274 274 275 278 276 272 268 273 271 275 276 276 276
304 305 305 305 306 305 305 305 304 304 300 298 290 290 289 292 290 288 286 284 285 282 282 282 285 284 283 283 285 285 286 285 286 283 281 282 281 281 284 285 286 286 285 285 282 281 278 274 274 274 274 277 274 274 273 271 272 272 278 279 280 278 277 279 276 275 276 274 272 272 275 274 276 272 274 275 275 278 275 263 263 268 271 272 275 276 275
304 304 305 305 305 306 306 305 305 304 303 300 293 289 289 291 290 290 286 284 282 281 282 283 284 282 282 283 282 283 283 283 283 284 282 281 279 280 281 284 282 286 286 284 282 281 279 275 275 275 276 279 276 278 270 275 268 270 272 275 274 276 275 277 275 278 277 278 273 273 274 278 274 273 274 274 274 273 264 267 269 271 271 272 276 276 276
303 303 304 304 304 305 305 305 304 304 304 301 295 293 290 290 289 288 284 283 280 278 282 281 284 283 284 283 282 283 283 285 285 283 279 281 281 282 282 282 286 282 285 280 282 278 280 276 277 275 276 275 277 273 277 272 270 274 274 273 272 273 273 272 275 272 275 276 274 274 276 278 273 272 275 275 275 264 269 275 273 275 273 273 275 276 274
302 303 303 303 304 304 304 304 305 304 304 302 297 291 292 291 290 290 286 280 279 277 280 281 283 282 283 282 280 280 280 282 280 283 283 281 283 284 284 280 284 280 277 283 278 280 279 277 277 273 270 274 274 277 267 269 276 270 275 277 277 275 273 269 275 274 272 272 272 271 267 277 277 276 273 275 271 271 274 271 273 275 276 274 273 275 275
302 302 303 303 303 304 304 305 304 304 304 302 299 293 290 292 291 290 288 285 280 276 277 281 282 282 282 282 283 283 283 282 282 281 283 281 285 285 277 279 283 280 277 283 277 278 277 272 271 272 275 277 276 275 268 271 271 275 275 273 273 277 269 267 272 277 268 272 270 270 278 276 278 278 274 275 279 276 275 276 274 274 273 274 274 274 275
302 302 302 303 303 303 303 303 304 304 304 303 300 295 290 292 291 292 290 287 281 276 276 283 282 282 283 283 284 283 284 283 284 284 280 279 282 283 279 282 283 282 280 277 274 271 272 269 269 268 272 269 269 270 270 269 266 271 268 272 270 279 274 275 273 275 271 269 274 275 275 277 279 280 278 280 280 275 276 277 277 276 274 274 274 275 275
302 302 302 302 303 303 302 303 303 303 303 303 300 294 291 290 289 293 290 285 285 286 285 281 283 284 287 286 285 285 284 284 283 282 283 282 279 280 278 281 281 281 277 280 283 280 277 273 271 273 265 270 275 268 268 269 266 266 269 274 275 274 275 274 271 270 273 274 274 273 273 276 277 278 277 279 278 275 274 275 275 276 276 276 276 276 275
301 302 302 302 302 302 302 302 302 302 302 303 301 295 292 292 291 290 288 288 284 281 284 283 281 278 281 282 286 285 285 283 285 283 284 287 282 276 279 279 281 278 273 277 279 277 271 265 267 266 268 271 269 264 270 267 267 267 266 268 272 272 273 272 272 272 271 268 275 274 276 275 277 279 278 277 277 277 277 276 277 277 275 275 276 276 276
301 301 301 302 302 302 302 302 302 302 303 302 300 298 294 291 292 290 287 281 282 282 277 281 283 286 285 285 285 282 284 286 287 284 282 284 284 282 280 281 281 281 280 278 277 274 266 270 269 267 269 273 276 266 269 270 267 273 264 269 269 271 275 271 272 271 272 271 273 273 274 276 278 279 278 278 279 277 275 278 278 277 276 275 275 274 273
301 301 301 301 302 302 302 302 302 302 302 302 300 294 292 291 292 292 289 289 286 284 278 277 281 285 282 284 283 286 284 286 285 283 283 283 283 285 282 280 279 280 278 280 278 277 267 264 258 258 268 269 274 262 260 272 269 272 271 271 274 272 275 264 271 272 273 273 272 273 273 274 275 275 276 278 278 278 276 275 275 274 274 274 273 273 274
301 301 300 301 301 301 301 301 302 302 302 301 299 296 294 293 293 291 289 288 285 279 282 278 282 282 282 282 284 283 284 285 285 284 282 281 281 281 281 280 279 278 278 275 274 268 261 260 266 271 265 264 269 264 268 268 271 267 266 272 275 273 272 272 271 267 268 269 272 274 267 267 274 276 277 277 278 277 276 274 273 273 273 273 273 274 273
300 300 300 301 300 301 301 301 301 302 301 301 299 296 296 293 293 293 293 291 288 279 279 278 279 280 283 279 283 285 284 285 285 283 282 280 280 281 281 280 278 277 276 276 271 270 268 272 270 268 267 266 270 267 274 272 271 266 267 272 275 274 275 274 271 272 270 273 274 276 278 276 277 278 278 278 277 276 275 275 276 275 275 275 274 274 273
299 300 300 300 301 301 301 300 301 301 302 299 295 293 292 294 293 292 294 294 288 282 279 278 276 274 276 281 284 282 283 285 284 283 282 280 281 280 281 280 279 278 277 275 275 272 267 269 275 270 266 274 268 260 268 264 265 267 272 276 275 277 277 277 277 276 274 275 276 277 276 276 277 277 276 276 277 276 276 277 277 277 276 274 274 275 276
299 300 300 300 301 301 300 300 301 301 301 295 290 288 285 286 293 292 295 294 290 285 279 277 275 278 279 279 280 282 282 282 282 283 282 280 280 280 280 280 279 281 277 276 276 270 274 272 275 275 275 278 272 266 268 261 264 271 277 277 278 277 277 277 277 276 275 275 274 276 276 277 278 277 275 275 275 276 276 277 277 276 275 274 274 274 274
299 300 300 300 300 299 300 301 301 301 299 292 289 282 282 279 287 295 296 293 293 288 283 284 279 282 276 277 279 281 282 282 281 281 281 281 280 279 280 280 277 279 275 275 275 275 276 269 273 273 277 278 276 267 266 266 264 265 276 278 278 278 277 276 276 275 276 274 274 274 274 276 276 275 276 276 273 275 275 274 274 275 275 272 273 274 275
299 299 299 300 300 299 300 301 300 300 295 290 288 284 284 285 288 294 296 295 292 287 284 280 279 279 277 283 280 281 282 282 282 282 281 282 279 280 279 280 277 280 281 274 274 274 272 275 274 274 275 281 277 264 267 265 268 272 278 278 277 277 276 275 276 276 275 276 274 274 274 275 275 276 278 280 276 274 275 276 276 273 274 275 274 272 273
299 299 299 300 300 300 300 301 301 299 292 293 295 294 294 297 297 297 296 293 290 285 286 282 275 279 278 277 279 277 280 280 279 281 277 282 278 279 275 281 277 278 288 278 272 271 272 276 275 273 276 278 272 272 270 270 273 277 278 279 278 275 275 275 276 276 277 276 277 275 275 277 277 278 278 279 278 273 273 274 274 271 269 269 271 272 271
299 299 299 299 300 300 299 299 300 298 295 290 285 285 288 295 297 297 294 289 286 285 285 279 277 275 273 274 270 273 282 279 279 282 275 280 278 279 274 279 278 277 276 277 276 274 270 274 271 271 274 271 273 270 269 274 278 278 279 279 278 276 275 274 275 276 277 276 277 279 280 280 279 275 273 274 275 273 272 271 269 270 271 271 272 273 274
299 299 299 299 300 299 300 298 295 290 286 286 285 288 292 297 297 296 293 289 283 280 280 278 280 274 273 269 268 271 279 280 276 280 277 279 283 277 278 275 278 276 275 283 275 277 276 277 276 273 270 275 273 271 274 276 277 278 279 278 278 277 275 275 277 278 277 274 274 276 277 277 275 276 276 275 274 273 271 270 271 273 272 272 273 273 271
298 299 299 299 298 298 294 295 288 285 284 285 285 293 297 298 297 292 288 285 284 280 279 278 279 274 277 270 268 270 283 277 280 280 280 281 279 282 281 279 274 279 282 280 274 279 275 279 275 269 279 274 271 275 277 279 278 278 279 278 279 279 279 279 280 280 274 273 274 275 275 274 274 276 277 276 275 273 272 271 268 268 272 273 274 274 271
297 298 299 297 292 288 284 284 287 286 285 289 293 297 295 293 289 288 287 286 285 285 279 278 275 273 276 271 271 270 279 273 283 278 281 278 276 282 279 278 274 281 278 275 277 276 279 283 275 273 276 274 275 280 280 280 279 279 279 279 280 281 280 280 280 279 275 270 269 272 273 273 272 273 274 275 275 274 269 271 273 271 270 271 273 273 273
298 296 289 285 284 281 281 283 284 290 296 295 293 287 284 286 280 283 283 280 283 284 279 280 275 274 273 274 270 280 279 273 281 275 278 281 278 275 280 277 276 281 269 274 276 282 277 276 275 274 275 280 281 281 281 281 280 280 279 279 280 281 280 279 277 275 273 274 273 273 269 265 268 271 272 273 273 272 273 275 275 274 274 274 274 274 273
292 286 284 283 281 279 280 282 293 296 291 289 286 281 279 280 278 275 275 279 280 275 280 279 275 275 273 273 274 284 278 276 277 278 274 282 277 271 278 271 277 279 271 273 273 283 272 274 275 275 274 277 278 279 282 280 280 280 280 281 282 281 279 278 277 277 277 277 279 280 279 276 274 274 273 272 273 273 273 273 272 272 272 273 273 271 266
285 282 281 280 277 280 287 293 295 290 287 281 280 278 274 277 275 270 278 272 274 276 279 273 279 275 278 276 276 275 283 276 273 274 277 277 284 272 274 272 275 275 267 271 270 279 272 269 274 273 272 277 278 280 280 280 280 281 281 280 279 278 277 278 278 278 278 279 279 278 277 274 275 276 276 274 273 273 272 271 271 271 270 270 266 265 265
284 281 279 276 279 284 286 287 284 282 280 277 276 275 274 271 271 270 273 271 271 271 274 274 275 273 278 276 276 273 280 280 275 276 274 271 276 275 269 269 276 268 267 268 270 263 262 265 270 271 273 278 278 279 279 277 278 279 279 277 277 278 277 276 276 274 271 273 274 275 275 271 270 273 274 271 271 272 271 268 265 265 263 262 263 260 254
285 283 281 284 284 286 285 281 279 276 275 275 272 270 272 271 271 267 269 269 270 271 268 274 274 275 272 277 275 278 274 275 274 275 274 270 278 269 266 267 267 264 264 269 265 260 263 263 267 266 273 276 277 277 272 273 275 276 276 272 273 275 275 274 275 273 271 274 275 275 270 267 264 260 254 258 263 261 259 259 256 253 253 251 252 253 254
291 289 287 282 281 278 278 276 276 275 271 270 269 267 269 266 269 270 267 268 263 264 267 270 270 280 276 275 271 272 275 278 275 274 270 269 275 272 267 268 267 262 266 262 262 264 261 262 260 268 274 275 275 274 274 275 273 270 268 268 268 267 269 272 272 272 263 263 263 259 252 250 249 249 250 251 252 250 249 251 251 251 252 252 252 252 252
287 284 280 277 278 277 278 269 277 271 269 270 269 265 267 265 267 263 260 264 261 263 269 273 273 275 272 276 275 274 272 276 279 267 266 271 269 268 271 266 268 269 268 262 265 263 264 260 266 271 272 271 273 269 267 267 266 266 268 265 259 261 265 265 265 266 259 254 251 251 251 250 249 249 248 248 250 251 248 249 250 252 252 252 251 250 250
280 276 275 274 271 276 274 267 273 269 267 267 271 265 266 265 269 267 269 266 265 267 269 272 274 273 272 269 269 272 278 269 276 272 270 273 267 270 267 265 268 266 266 265 266 263 261 262 268 267 268 269 268 262 258 259 259 262 265 263 261 259 260 263 262 259 255 251 251 251 251 250 250 249 248 249 249 248 250 250 251 252 252 251 252 251 251
276 275 274 270 269 273 270 267 268 265 267 270 266 265 269 271 271 271 268 263 265 267 273 273 272 273 270 270 274 273 273 271 271 272 273 271 268 267 269 267 266 264 265 265 264 264 267 271 272 273 269 264 258 255 255 255 256 255 260 264 260 254 253 253 252 252 252 252 251 251 250 251 250 250 249 248 248 249 249 250 250 252 253 252 251 250 251
276 275 272 271 268 271 270 266 265 267 266 264 264 268 270 269 265 267 266 265 270 271 272 270 273 273 273 269 268 268 268 271 270 272 272 267 268 269 273 268 266 267 265 264 264 264 266 271 271 260 253 253 253 253 253 253 253 252 253 253 253 252 252 252 252 252 252 252 252 252 251 250 249 249 250 250 248 248 248 248 249 251 251 250 250 250 250
273 275 272 267 267 269 268 268 263 261 260 262 261 260 261 263 269 267 266 264 271 274 274 273 269 269 270 270 270 269 267 266 270 269 269 268 270 264 266 265 264 265 263 264 267 270 269 262 255 253 253 251 251 252 252 251 252 250 250 251 250 251 251 250 250 250 251 251 251 250 249 249 249 250 250 249 248 248 246 246 247 248 249 248 248 248 248
275 272 270 268 267 266 265 264 268 268 263 259 258 263 266 271 266 265 265 265 272 272 272 272 269 271 267 271 269 271 268 271 267 269 270 267 266 264 265 261 262 261 264 266 266 265 263 256 253 252 251 252 252 251 251 250 250 249 249 249 249 249 249 249 249 249 248 249 249 249 249 249 249 249 249 250 249 248 248 247 247 247 247 248 247 247 247
272 271 269 266 265 265 260 259 266 265 259 258 260 262 259 263 264 265 264 266 267 272 272 274 274 270 266 267 265 268 267 269 267 269 265 265 266 266 263 258 260 262 260 259 259 257 253 252 253 252 252 251 252 251 250 250 250 250 249 249 248 248 248 248 248 248 248 248 249 249 249 250 250 249 250 250 249 248 248 246 246 246 245 244 246 246 246
273 271 267 266 265 265 265 264 267 260 257 262 259 261 261 266 265 265 263 267 270 269 264 263 268 266 266 265 265 264 266 269 268 267 266 263 263 262 262 262 262 260 258 257 254 254 254 253 251 251 250 250 251 251 250 249 248 249 249 249 249 248 248 247 248 248 248 249 249 250 249 248 248 248 249 249 250 249 248 248 246 243 244 243 243 245 246
269 268 267 266 265 265 263 261 261 259 260 259 260 259 261 262 259 260 262 265 269 270 266 264 265 265 265 265 266 266 266 264 265 266 264 265 263 259 255 257 260 260 257 256 256 253 251 251 250 249 247 248 249 247 246 246 246 245 246 246 247 248 248 248 248 248 248 247 247 246 247 247 248 249 251 251 251 251 249 246 245 244 243 242 242 242 242
Wind_Speed
3 3 3 4 6 10 15 19 22 22 25 15 11 12 8 11 10 5 9 18 24 18 15 12 8 9 9 2 2 3 1 6 6 8 2 3 3 1 2 5 4 4 3 2 4 8 4 9 8 3 4 4 6 4 7 8 8 5 2 4 2 4 2 1 2 2 3 2 1 1 2 1 1 2 2 4 7 7 8 6 4 4 1 1 1 4 6
6 4 4 4 3 4 5 10 15 19 21 12 7 14 9 7 3 2 1 13 18 19 15 14 17 14 2 8 8 2 5 8 6 11 11 7 4 5 3 1 4 2 2 3 5 6 3 4 6 2 2 3 2 0 8 10 7 6 8 7 8 4 4 6 2 1 3 4 2 1 1 1 3 3 2 3 2 3 2 5 1 1 6 4 5 14 9
4 5 4 3 5 3 3 1 4 9 20 9 10 9 4 5 1 2 3 6 8 15 10 14 12 14 14 11 13 8 3 5 12 12 10 5 4 3 4 5 4 2 2 3 2 3 6 1 3 2 2 2 1 5 4 2 4 1 1 4 8 4 4 8 8 11 9 7 7 8 8 8 2 1 1 3 8 6 3 6 3 8 2 8 5 13 3
4 4 4 4 5 10 12 11 10 11 11 5 2 1 4 6 5 2 3 7 4 4 4 3 11 12 13 12 12 12 8 2 2 10 7 9 4 4 3 1 4 3 4 3 5 5 1 4 2 4 3 2 1 2 4 0 1 1 3 6 7 3 1 5 8 10 12 8 2 2 5 4 6 4 7 6 4 6 5 2 3 9 2 9 13 12 1
5 4 4 5 6 8 9 11 12 12 12 8 5 2 1 2 5 6 5 1 7 1 2 2 7 13 13 9 6 13 15 3 1 7 6 8 9 3 3 4 6 4 7 8 6 5 4 1 2 4 4 1 0 4 2 4 4 3 4 2 5 3 3 7 10 10 9 3 3 5 7 7 6 7 7 7 7 8 10 10 9 5 1 14 10 1 3
5 4 4 3 3 3 6 7 9 10 11 7 3 0 2 2 2 2 1 4 7 11 8 6 3 2 14 5 3 12 14 10 9 2 2 3 7 7 1 4 10 11 12 8 5 7 9 5 9 3 0 3 0 1 2 1 3 1 1 3 3 5 8 6 5 8 6 3 3 6 3 4 4 8 9 9 10 6 11 9 9 7 10 16 10 4 5
5 4 4 3 3 3 5 6 7 7 7 6 3 3 2 1 1 0 2 2 3 7 2 10 7 6 9 3 4 5 13 16 11 5 3 4 5 12 9 12 11 11 8 8 7 8 6 11 7 5 7 7 4 2 1 1 3 2 1 1 1 2 4 3 4 7 6 5 5 4 7 3 2 7 12 12 9 13 13 13 10 11 12 12 7 1 11
6 5 5 4 4 4 4 5 6 6 6 4 5 3 2 2 2 1 2 2 2 1 2 5 8 7 6 4 6 4 6 13 6 0 9 6 7 6 12 13 12 10 9 9 9 14 16 11 12 9 8 3 3 4 4 4 2 1 3 2 2 5 3 5 3 4 7 5 3 3 5 5 9 12 12 6 5 6 8 3 1 2 5 8 6 10 14
7 6 6 5 4 4 5 5 5 3 1 4 3 2 2 2 1 1 5 3 1 2 2 4 6 7 5 7 7 5 6 7 6 4 1 9 8 9 18 14 6 6 9 12 15 17 14 8 5 9 14 13 6 7 4 6 6 3 2 1 1 3 3 3 2 5 7 4 6 5 3 1 7 15 13 7 9 10 6 5 7 6 10 7 5 8 12
9 8 7 6 6 5 5 5 5 3 4 4 2 3 1 2 2 0 2 2 2 3 1 1 3 8 8 8 6 7 13 5 3 1 1 0 1 5 9 5 7 4 9 18 20 3 6 5 4 3 2 4 4 1 3 8 6 5 7 2 5 5 5 5 3 7 9 2 5 7 4 2 10 22 18 14 13 8 2 2 7 13 9 7 10 14 5
12 10 9 8 7 7 6 5 5 5 3 4 4 2 2 3 1 3 3 3 1 4 4 2 6 1 5 5 4 3 2 7 6 8 2 2 2 6 3 9 9 5 13 7 2 7 7 8 5 5 8 6 4 1 2 4 5 9 9 3 2 4 8 7 6 7 2 1 3 4 6 12 18 1 9 17 15 14 11 11 13 8 8 7 6 5 0
15 13 12 10 9 9 8 7 7 5 3 3 5 4 2 2 4 3 2 3 1 5 5 4 7 1 4 5 6 7 7 10 11 6 4 1 1 2 1 3 6 3 1 6 10 11 9 6 9 9 9 7 5 3 3 7 3 0 5 8 7 9 7 6 2 3 3 2 4 5 13 18 1 2 5 6 12 12 15 15 10 6 6 6 4 4 4
18 16 15 14 12 11 10 8 7 6 5 5 4 5 2 2 4 3 4 2 2 5 6 3 3 3 3 4 5 8 5 2 3 3 4 5 1 1 1 1 3 2 8 9 9 7 5 3 6 4 4 3 4 5 5 2 1 2 0 1 8 7 9 3 2 5 4 4 6 6 9 2 3 5 3 4 6 2 2 6 7 8 10 10 7 8 11
18 18 17 16 15 13 11 11 9 7 6 5 5 4 4 2 4 3 2 2 2 2 3 2 1 5 5 4 4 2 3 3 1 3 8 2 7 6 2 0 1 3 7 9 6 7 4 2 1 2 1 3 2 0 2 6 5 2 1 1 1 9 3 5 6 5 8 6 10 10 4 5 4 1 2 7 7 7 7 9 7 9 6 8 7 9 14
14 17 19 19 18 16 14 13 11 10 9 7 6 5 4 2 3 5 0 2 2 1 2 7 4 6 5 4 4 3 3 3 6 1 3 2 3 2 2 1 2 3 1 5 2 3 3 3 1 3 1 3 4 5 3 2 1 3 2 3 0 4 11 7 8 6 8 6 4 2 1 12 9 4 2 1 3 6 5 4 6 4 2 8 11 11 11
15 13 17 20 18 17 16 15 14 13 12 10 6 4 3 3 4 5 5 4 2 5 5 6 3 3 5 3 4 7 5 4 4 3 1 1 1 2 2 1 2 2 4 3 3 5 4 5 5 5 5 5 1 5 3 4 2 0 3 2 3 4 0 3 10 3 4 4 7 7 9 7 2 3 2 1 1 8 5 1 7 6 7 10 10 9 8
15 15 13 17 20 19 18 17 16 15 14 11 4 5 3 3 3 5 5 2 4 5 3 2 2 4 5 2 2 1 3 5 5 4 3 4 3 2 2 1 1 3 2 4 1 3 3 3 2 2 1 2 3 6 3 2 3 2 2 5 3 1 0 3 2 3 5 5 6 9 3 5 2 3 2 3 3 6 4 3 8 5 6 6 7 8 7
17 16 15 14 17 21 21 21 19 18 17 14 8 5 2 1 1 5 4 4 4 3 2 2 4 2 4 3 3 1 4 4 4 2 3 1 4 2 3 2 3 1 1 5 4 4 4 4 5 4 5 2 3 3 6 6 5 5 6 6 5 2 2 2 11 9 8 10 5 2 5 3 2 5 4 4 2 6 5 11 8 2 5 5 7 7 8
19 18 16 15 14 16 21 23 21 20 17 15 7 6 0 4 3 4 5 3 3 4 1 2 0 2 1 3 2 2 1 1 3 5 3 2 3 3 5 1 2 4 4 6 2 4 5 4 1 2 5 3 3 6 2 5 7 2 7 5 2 2 3 4 1 4 8 5 6 7 3 4 7 1 7 6 5 3 11 5 2 10 6 7 7 8 5
19 18 17 17 16 16 16 21 23 20 19 16 11 6 3 5 5 6 6 5 2 3 2 2 2 4 2 3 3 1 0 1 1 4 6 5 2 9 4 2 3 4 2 3 5 4 4 6 5 2 2 5 4 4 3 4 2 9 4 5 7 10 8 5 6 2 3 1 5 4 8 4 12 12 2 4 4 7 4 2 0 3 7 9 7 7 7
20 19 18 18 18 17 16 17 22 23 21 20 13 5 2 2 5 3 4 7 6 2 4 2 1 4 3 3 3 3 4 5 3 4 3 3 9 7 6 6 7 5 6 6 8 4 4 1 2 3 3 4 4 5 5 2 1 5 3 4 2 3 4 3 4 5 5 8 8 9 6 3 14 17 10 6 9 6 6 7 5 2 4 7 7 8 8
21 20 19 19 18 18 17 15 18 20 21 22 16 6 5 4 5 3 3 5 3 3 2 1 2 2 4 3 3 4 3 2 3 2 4 3 3 3 1 3 7 5 3 4 5 2 3 2 2 3 2 1 4 5 3 6 3 2 5 1 1 5 7 6 7 5 9 9 7 2 1 8 10 8 4 9 8 5 9 6 8 7 6 4 5 8 7
22 21 21 20 19 19 19 17 16 19 22 24 15 8 7 7 4 3 5 2 1 1 1 1 0 1 0 1 3 5 3 1 4 2 2 4 1 1 2 3 4 1 1 0 6 5 5 7 6 5 2 2 8 3 1 3 2 1 5 5 4 4 2 3 4 5 3 2 4 1 1 2 7 5 3 7 5 2 4 5 4 5 6 9 9 8 7
23 22 21 20 20 19 20 18 17 17 18 22 15 9 5 7 8 7 3 2 2 1 3 1 1 4 6 7 7 2 3 1 4 4 2 2 4 2 2 2 0 2 1 2 1 6 5 3 4 2 3 5 6 3 8 6 5 4 2 2 2 2 2 1 3 3 0 7 1 7 6 3 6 11 6 1 1 6 6 4 5 5 6 7 6 6 7
22 22 22 21 19 19 19 19 19 19 19 20 15 6 6 5 7 10 10 6 4 4 4 2 7 7 5 3 2 2 5 5 3 4 3 2 3 4 5 2 3 3 3 4 1 8 3 4 1 1 4 6 7 4 3 4 4 5 4 5 1 4 3 2 3 1 5 4 3 2 2 3 7 8 8 6 8 6 5 6 6 4 3 6 6 3 2
21 22 23 22 19 18 18 19 19 21 22 21 15 8 9 9 8 7 5 3 3 3 4 7 4 2 2 2 3 5 4 7 7 5 5 4 3 4 6 2 3 3 5 2 2 5 5 3 2 1 5 6 3 5 3 5 4 1 6 9 5 4 4 4 5 6 3 3 1 0 2 2 4 5 7 8 7 5 5 6 5 4 4 3 1 4 6
22 23 22 21 22 22 20 20 19 19 21 21 12 7 7 6 9 12 11 9 7 2 4 7 2 1 0 5 2 2 3 5 5 6 4 3 3 3 5 5 7 3 5 4 4 5 4 3 2 4 3 4 2 2 2 1 3 3 3 4 2 6 6 3 3 1 6 8 6 7 3 3 6 8 12 13 11 6 5 3 4 5 6 6 6 7 5
23 21 21 20 21 20 19 22 22 22 21 20 11 7 6 8 9 10 8 10 11 5 3 2 1 4 2 0 5 7 4 5 8 7 6 4 4 6 6 7 6 5 2 5 1 1 2 4 5 1 1 1 3 1 1 1 3 3 3 6 7 8 11 8 7 9 7 3 7 9 9 6 7 9 11 11 7 6 7 9 9 9 8 8 7 7 6
23 21 21 22 21 19 20 23 22 22 21 15 7 7 5 7 7 6 9 7 5 5 5 2 1 2 2 4 3 3 2 7 7 8 6 5 5 5 7 8 7 6 4 3 3 3 3 3 3 5 3 6 6 2 2 1 2 6 9 8 7 9 6 11 13 2 0 5 9 11 8 8 7 7 6 8 8 9 11 11 9 10 10 8 9 10 10
23 23 21 22 22 22 22 22 22 21 20 7 4 2 3 2 5 10 11 6 5 4 4 3 1 5 1 2 1 0 2 4 5 6 6 5 5 6 7 7 3 3 3 5 6 3 4 2 2 1 2 1 3 3 2 2 2 7 9 11 9 7 6 4 1 4 6 4 5 8 9 9 8 5 4 6 6 8 7 10 12 10 8 6 9 9 8
22 23 22 21 23 23 22 21 22 21 17 7 6 3 5 5 8 12 14 8 5 4 2 2 4 0 2 2 2 5 7 5 5 6 6 6 4 3 1 3 1 3 3 1 1 3 2 1 3 2 0 2 5 3 5 4 3 4 12 13 10 10 9 5 4 4 3 3 4 4 2 7 5 3 6 6 4 6 7 6 6 7 7 5 8 10 10
22 23 23 22 22 23 22 22 22 20 9 9 10 6 3 3 1 15 17 13 9 5 5 4 2 1 1 1 1 2 3 4 3 2 1 3 2 2 1 2 4 1 3 4 2 1 2 4 3 3 4 4 6 2 3 3 6 11 15 13 6 5 3 4 6 6 4 6 5 1 4 9 5 8 11 9 7 10 10 10 8 6 8 8 7 6 8
21 23 24 24 21 22 25 25 25 15 8 6 9 6 4 7 10 23 16 12 7 2 2 2 4 2 2 4 2 2 3 4 2 3 2 1 5 1 2 0 2 2 3 3 2 3 3 3 4 3 5 2 5 2 4 8 11 16 18 15 7 4 5 5 6 7 9 9 11 10 10 11 9 11 11 14 9 7 7 8 8 4 3 5 7 8 7
22 21 21 23 23 23 22 22 21 16 13 6 2 4 3 2 16 18 14 7 4 2 2 4 4 3 3 3 4 3 4 7 5 6 3 0 3 4 3 3 1 4 4 6 4 2 2 1 5 3 2 0 1 3 3 10 17 19 17 16 8 2 3 4 5 9 10 8 9 11 12 12 9 1 3 7 9 4 6 5 3 4 8 8 10 11 10
21 20 21 23 22 22 19 18 10 6 6 3 1 1 4 10 14 21 18 10 8 2 2 1 1 4 1 2 2 3 1 5 4 5 6 2 3 5 3 4 3 4 5 5 2 3 4 6 5 5 6 3 3 3 7 14 18 17 15 14 8 3 1 5 11 13 7 4 6 8 10 8 7 8 10 8 8 4 5 6 8 8 7 9 11 11 7
22 21 20 22 23 16 8 12 4 5 3 5 4 8 16 17 18 9 5 5 3 4 4 4 4 5 7 7 4 2 3 2 1 4 3 2 3 1 2 3 3 6 0 2 5 7 7 4 5 3 6 7 9 10 15 16 19 18 14 11 9 8 11 15 16 11 3 7 9 10 10 8 10 14 12 9 7 6 7 6 5 6 9 11 11 11 7
20 18 15 11 6 5 3 3 2 3 4 7 13 17 17 13 6 5 3 2 2 0 3 4 4 5 5 4 1 3 3 5 3 4 4 4 4 2 3 2 6 2 4 3 3 7 6 3 3 3 7 10 12 17 18 17 14 12 11 9 10 12 13 12 11 8 3 5 7 7 9 8 8 7 8 10 11 8 4 7 10 9 11 14 13 11 11
19 19 11 5 3 3 2 2 5 9 22 25 18 9 3 3 3 1 2 2 3 3 2 2 3 2 2 5 0 4 5 2 1 4 2 4 4 2 2 3 4 4 5 4 6 5 3 3 6 8 9 11 13 15 16 11 9 8 6 7 12 12 10 8 7 5 6 8 7 10 7 4 7 8 9 12 11 9 11 12 10 9 9 10 12 11 8
17 6 5 2 3 4 4 5 12 26 15 5 4 3 1 1 3 2 1 1 1 1 3 3 4 2 4 4 0 1 5 5 4 4 6 5 5 4 3 4 5 3 3 3 6 8 3 5 4 6 9 9 13 20 15 6 7 7 10 13 13 11 7 7 7 11 12 14 16 15 11 10 12 14 11 11 11 9 9 8 7 8 9 9 10 8 5
5 6 5 5 4 1 3 16 25 11 4 4 1 3 3 0 3 2 0 4 1 2 1 2 3 4 6 8 8 3 2 4 6 5 7 4 0 5 2 3 3 4 5 6 4 4 6 6 4 5 9 11 16 16 10 9 11 13 11 11 9 8 6 8 9 10 11 12 10 10 8 6 8 10 9 9 10 10 9 8 9 8 6 8 5 4 5
4 5 5 2 2 5 4 5 4 4 3 2 2 1 2 2 1 0 2 2 1 3 0 2 2 2 0 2 3 5 1 4 0 1 2 1 2 5 2 2 2 3 2 3 1 5 2 2 4 8 12 14 12 12 9 6 9 12 10 7 8 9 8 8 9 7 4 6 8 9 9 6 6 8 8 6 6 8 7 4 3 5 5 5 4 2 2
4 5 6 7 4 5 5 4 2 3 2 0 3 2 2 1 2 3 1 4 4 2 1 2 3 5 5 7 6 4 0 0 2 1 2 1 2 4 2 0 2 3 1 1 3 3 3 1 2 4 9 11 9 7 3 5 9 10 8 4 5 7 7 7 8 8 6 8 9 8 4 1 2 1 2 1 1 0 1 1 1 1 2 3 4 4 3
25 17 10 6 3 2 1 3 1 2 4 1 3 2 1 4 2 4 2 1 2 3 4 3 1 2 2 2 2 0 3 2 2 1 2 3 1 3 2 0 2 1 3 1 3 2 2 3 4 9 9 9 8 7 7 7 4 2 1 1 3 4 5 6 7 7 1 1 3 2 1 2 5 3 2 2 4 8 6 4 3 4 4 5 5 5 4
10 6 5 1 2 2 2 3 1 4 1 1 4 6 3 3 1 3 1 4 2 1 5 8 6 8 4 0 5 1 2 1 2 2 1 0 4 1 2 2 3 3 3 2 1 3 6 3 8 8 7 6 7 3 4 5 4 4 5 1 1 1 0 2 1 1 0 3 6 4 5 7 5 4 5 5 3 8 8 6 4 5 6 6 7 6 4
6 4 3 2 2 2 3 1 1 3 3 3 3 2 5 9 7 7 9 4 4 6 3 5 7 6 5 1 4 1 2 2 1 4 3 4 2 1 3 3 1 2 2 2 1 2 2 5 7 6 7 8 1 4 5 5 6 4 5 5 3 3 3 2 2 2 3 5 3 4 5 3 6 6 7 6 4 3 6 7 4 6 6 8 7 7 5
4 4 4 4 3 0 2 1 2 1 1 2 4 6 7 9 9 9 3 3 4 3 9 7 7 6 4 1 5 4 2 2 3 2 1 2 4 3 2 0 3 2 1 2 3 6 10 10 10 10 2 1 3 5 6 5 7 6 4 2 4 5 3 3 3 4 4 4 3 5 5 4 5 7 7 5 5 6 6 5 4 5 7 8 7 6 4
4 2 2 2 3 1 2 4 4 3 2 3 3 3 4 4 2 4 3 2 6 6 7 3 5 3 8 2 3 2 1 0 2 2 4 2 3 1 2 3 2 3 5 5 5 5 7 10 3 3 5 6 7 6 7 7 7 7 6 4 4 3 3 4 3 3 3 4 5 5 5 5 5 6 6 8 7 6 5 4 5 4 6 9 7 6 6
5 1 3 3 3 3 5 2 2 3 2 1 1 1 0 2 6 2 0 1 6 7 10 7 5 2 4 2 3 3 2 0 1 3 2 2 2 3 0 1 2 1 2 4 9 8 5 1 2 4 5 3 4 6 7 8 8 8 6 5 3 3 3 3 3 3 3 4 4 5 5 4 5 5 7 8 7 6 4 4 5 6 8 7 7 7 6
3 2 2 2 1 2 2 1 6 5 2 4 1 2 2 6 3 2 0 0 7 6 5 7 4 5 1 0 3 2 1 2 3 3 3 0 3 3 3 4 2 2 5 6 5 1 0 1 2 3 3 3 5 4 4 4 5 6 6 5 4 3 2 4 3 3 3 4 4 6 6 4 5 6 6 6 9 6 4 5 6 6 5 6 7 7 5
4 2 4 4 4 3 0 1 5 3 2 3 2 2 3 5 6 0 1 3 3 7 3 6 3 5 1 3 1 1 1 1 2 0 3 3 3 1 4 0 3 5 2 1 2 0 1 2 3 3 4 4 4 5 4 5 4 4 4 4 4 3 3 3 4 4 4 4 4 5 5 5 5 4 6 7 6 5 7 7 6 6 5 4 6 6 6
2 4 2 2 2 4 6 5 9 5 1 1 2 2 1 5 4 3 1 3 5 5 4 3 2 3 2 2 1 1 3 1 3 3 5 4 1 3 4 4 4 5 2 0 0 1 2 3 3 3 4 5 5 6 5 4 4 4 3 3 3 3 4 4 4 6 5 4 4 6 6 5 5 6 6 6 7 9 10 7 6 4 4 4 4 5 5
3 4 3 3 4 5 2 2 6 5 4 2 4 1 0 2 2 2 3 1 5 8 5 2 4 2 2 4 3 1 1 3 2 1 1 3 2 4 4 4 1 0 0 1 1 2 2 2 3 3 3 4 4 4 3 3 3 3 3 3 3 3 4 4 4 4 5 6 6 6 5 5 5 6 6 6 6 7 7 5 2 3 3 3 2 3 3
Wind_Direction
23 324 311 289 254 236 229 227 224 220 199 186 191 170 194 193 204 359 178 164 156 172 210 204 201 214 223 122 224 159 187 190 181 190 187 194 143 150 215 204 155 258 166 166 162 166 193 167 205 169 177 234 202 226 161 145 148 87 73 65 238 115 122 140 299 312 315 312 317 46 64 103 317 272 102 129 191 197 212 225 187 192 162 207 14 238 258
37 43 10 339 284 293 274 222 218 214 194 192 166 190 180 181 131 174 299 195 171 179 190 194 203 206 67 195 211 143 200 169 169 204 189 178 161 182 184 328 247 174 138 130 173 189 184 213 173 270 194 201 44 173 162 164 177 154 207 150 194 143 238 137 144 33 345 343 340 13 11 52 198 210 214 169 121 66 118 95 71 225 209 161 144 254 257
69 57 43 36 27 356 337 292 157 179 188 185 180 186 143 107 46 27 196 222 220 200 195 203 196 200 204 189 199 191 212 228 199 183 197 163 167 127 222 193 150 147 162 136 84 202 195 80 249 112 192 210 2 355 148 232 172 53 177 111 160 151 173 145 188 211 212 212 187 208 223 216 225 210 237 231 176 158 118 235 192 228 189 151 222 251 264
73 78 86 75 70 54 39 40 59 73 73 71 85 142 131 163 158 185 183 205 228 284 6 214 193 197 200 202 207 193 208 219 244 182 202 178 174 180 126 23 149 139 140 147 186 212 238 160 196 164 213 234 340 298 344 15 188 188 117 143 130 166 114 185 207 208 229 230 195 258 97 75 182 224 183 209 198 202 180 106 169 212 204 209 234 251 331
100 76 78 105 84 65 62 39 39 50 51 57 117 34 101 44 133 153 185 96 242 258 183 237 190 204 177 210 156 206 206 166 256 191 198 198 172 145 151 157 162 237 173 186 198 196 209 111 130 202 170 251 239 348 99 48 26 125 93 351 77 86 199 218 221 232 242 139 180 190 165 176 209 192 228 209 181 178 184 190 225 141 158 252 244 174 237
123 107 88 80 65 68 88 80 50 41 33 19 78 152 16 136 280 128 239 147 193 204 226 191 205 71 174 211 149 201 198 189 198 168 266 134 168 159 305 193 197 173 185 158 179 181 210 174 217 124 230 102 294 64 4 116 327 20 69 346 137 153 217 220 182 246 236 152 175 164 186 215 198 203 212 214 205 179 196 219 223 168 215 252 254 180 206
136 133 122 113 96 80 76 81 89 65 41 43 98 122 287 76 30 186 343 173 310 214 65 163 176 176 165 157 141 172 198 208 202 161 150 154 199 194 202 207 200 185 171 166 193 179 180 225 208 164 196 175 135 159 47 243 39 94 66 68 177 128 238 204 171 231 249 228 167 180 189 214 232 234 229 228 199 205 210 223 221 208 234 245 274 184 240
169 157 153 144 128 96 89 94 99 93 64 60 65 40 125 211 128 235 3 51 34 28 117 158 177 205 172 155 217 204 208 211 174 185 169 181 207 195 215 209 203 195 183 180 196 204 208 199 195 201 154 207 187 195 183 144 9 46 168 143 289 151 280 108 137 227 248 244 101 151 203 201 239 247 242 196 195 232 224 207 145 201 276 267 270 261 266
192 178 169 175 156 146 123 107 105 94 34 57 83 58 52 63 358 278 135 149 164 49 56 151 189 206 178 197 212 189 221 231 189 204 241 191 177 184 207 205 174 184 192 205 220 221 215 217 198 180 171 198 201 147 240 132 137 140 95 109 301 154 246 60 108 226 243 224 165 177 156 183 237 255 241 165 201 230 193 173 203 187 224 224 224 250 253
216 202 191 192 194 172 156 139 138 116 85 109 113 91 155 67 256 209 83 101 173 144 304 121 144 218 210 198 188 177 214 207 158 265 327 49 84 182 199 186 127 186 189 212 222 183 96 132 106 117 53 76 115 132 161 151 148 164 190 134 148 181 142 164 179 221 238 255 143 163 137 275 275 246 230 198 215 212 98 243 211 215 212 219 234 244 250
216 215 207 203 200 200 185 166 158 149 107 124 112 140 136 144 121 36 46 122 181 165 143 226 189 228 102 178 194 162 151 169 192 195 270 52 40 360 186 165 167 168 207 206 98 114 104 102 90 51 57 40 47 41 128 181 188 167 160 142 212 159 176 207 166 229 180 34 140 131 149 216 234 329 160 183 206 204 213 230 228 217 172 212 213 244 34
213 211 214 214 212 209 205 184 169 161 114 141 117 123 195 146 89 79 89 171 230 154 179 212 187 208 129 182 186 199 192 191 201 197 185 13 338 345 103 120 124 190 174 124 114 104 107 63 56 56 57 57 55 35 133 181 183 30 180 163 172 181 193 210 132 138 165 72 119 170 217 229 59 329 348 195 192 183 206 225 239 225 214 237 265 269 234
215 211 210 211 211 213 209 199 188 159 120 136 106 137 195 183 110 123 134 147 238 160 181 238 189 204 184 169 181 208 207 172 149 172 208 193 269 35 2 155 167 173 133 131 116 88 75 113 56 104 67 49 38 50 34 54 50 356 74 77 164 181 188 143 89 119 51 110 194 214 240 9 304 357 5 26 75 64 97 312 271 235 214 206 206 226 237
241 217 209 209 209 211 211 206 195 168 137 117 102 131 143 156 100 97 116 121 242 174 195 347 73 200 199 201 176 177 149 168 173 176 196 195 203 201 188 59 343 155 148 119 89 105 76 38 174 112 283 54 10 262 179 63 21 10 63 39 347 186 124 154 204 172 179 199 198 232 8 300 205 23 258 170 158 173 166 235 248 236 195 171 191 214 243
263 241 220 211 208 207 208 207 196 174 151 108 101 89 108 89 108 119 189 85 206 359 194 213 199 198 173 194 168 153 149 167 160 210 30 16 80 19 136 50 335 112 357 101 83 45 142 109 53 152 321 114 203 216 67 258 103 14 349 325 332 197 187 194 195 229 152 158 199 297 270 252 248 216 187 144 175 146 178 181 283 293 191 187 177 207 229
260 259 237 218 209 205 205 205 200 181 156 123 97 113 122 131 104 88 112 144 134 249 227 196 104 134 167 189 186 189 185 163 173 112 78 60 74 66 16 41 357 59 58 73 103 128 164 151 198 181 207 189 201 86 260 118 339 182 46 352 79 19 56 218 213 195 87 176 220 212 227 256 136 226 165 163 145 127 96 94 278 264 188 201 169 196 224
255 253 251 234 213 209 207 206 203 188 160 138 115 128 166 196 121 133 117 80 175 223 47 94 120 107 99 74 47 213 179 191 153 169 194 208 141 93 60 58 359 76 92 91 189 106 159 122 117 125 353 133 127 203 76 73 150 325 28 43 61 51 351 145 232 203 207 165 217 228 237 236 315 129 140 165 136 109 75 310 268 259 196 183 160 189 209
244 246 246 247 233 216 208 207 204 197 173 155 129 139 172 130 131 110 71 114 152 274 221 213 106 150 173 179 162 219 76 88 62 39 73 88 103 145 167 131 74 336 121 130 183 170 178 146 163 178 198 186 147 115 205 166 167 196 176 159 160 168 280 233 222 212 210 214 245 1 281 271 155 170 149 160 148 83 94 233 237 229 182 179 176 193 201
245 245 246 242 242 237 222 213 208 206 191 159 119 86 23 173 184 100 114 103 121 214 271 292 295 143 179 65 109 155 171 155 148 120 143 96 230 184 130 214 162 157 193 173 155 182 175 232 44 125 160 232 143 198 157 138 195 63 119 97 61 302 93 316 77 213 225 237 237 244 267 230 154 280 162 172 95 185 222 239 191 150 195 200 186 190 193
241 241 240 238 237 235 235 225 213 209 201 166 148 158 181 148 186 160 133 155 141 185 251 195 165 188 188 138 160 120 88 47 309 131 182 180 105 117 89 124 297 96 23 149 192 203 183 201 179 138 55 178 216 148 33 251 92 159 174 214 185 185 152 211 192 197 55 58 249 281 265 262 128 122 45 294 155 234 186 142 295 183 170 164 207 201 203
239 237 236 236 232 230 230 229 220 209 201 176 159 130 119 182 181 188 123 131 125 135 295 257 113 191 153 175 192 165 158 191 177 156 228 128 178 153 174 204 176 144 178 170 177 192 153 218 145 178 220 140 219 88 179 152 332 268 125 196 184 215 100 238 248 182 158 198 201 217 218 125 151 143 180 207 210 187 155 131 176 215 163 180 179 220 198
239 235 234 233 230 224 226 227 220 211 200 183 165 149 159 179 163 142 134 94 111 162 207 207 176 193 208 196 183 160 162 179 208 158 128 150 272 198 251 100 151 152 195 112 62 32 4 138 54 93 192 222 7 168 205 117 220 228 356 130 312 226 184 186 192 206 156 196 212 223 177 163 189 164 162 199 202 149 176 146 166 171 234 189 176 208 206
240 236 232 231 229 226 222 220 220 214 207 186 165 172 170 148 162 160 133 101 28 57 96 27 26 322 350 292 228 204 207 148 126 93 143 122 213 330 148 158 184 115 60 4 172 154 159 141 193 156 61 231 173 167 333 145 201 181 163 248 206 335 147 172 84 265 258 256 185 141 10 184 198 252 204 200 196 170 148 159 145 223 189 167 186 210 193
237 235 233 230 228 226 222 216 214 214 211 204 174 165 157 160 155 131 83 80 142 26 311 95 51 261 205 241 243 181 103 100 192 195 179 169 176 240 352 279 205 50 354 238 183 132 184 112 201 119 162 229 97 127 177 247 217 188 81 295 260 246 133 132 189 268 267 269 109 148 182 177 193 210 225 224 201 202 194 201 217 208 174 196 220 197 190
234 234 231 228 224 221 221 218 211 210 212 208 185 167 117 130 160 160 154 151 166 159 227 243 225 227 198 194 76 91 220 190 151 155 139 147 178 165 199 216 159 157 203 174 144 77 44 113 194 91 184 249 129 225 275 115 286 161 161 258 21 306 170 84 250 236 189 247 150 207 349 213 209 205 214 234 240 219 206 212 220 219 193 192 207 151 124
230 234 232 228 226 224 220 214 213 213 209 204 189 158 166 167 170 150 123 94 96 124 199 250 248 3 78 91 236 214 187 167 176 170 181 188 177 190 147 101 38 36 94 75 51 115 121 66 92 136 154 274 93 145 229 200 178 242 178 211 205 184 127 207 194 192 250 88 24 32 25 336 264 249 250 241 236 223 212 219 226 228 214 222 175 196 184
228 228 230 225 219 218 217 218 211 212 210 207 187 165 167 149 161 165 165 156 126 339 227 240 197 125 161 198 232 66 114 162 175 158 134 121 120 90 111 122 113 90 96 48 27 113 59 99 134 210 177 227 113 163 141 56 134 159 223 251 133 102 226 198 94 182 243 200 196 156 125 251 244 228 228 232 234 209 215 205 230 225 219 212 205 237 218
227 223 224 230 227 221 215 217 212 208 209 199 178 170 160 160 185 183 174 171 179 174 159 112 193 240 143 358 237 186 183 157 164 163 156 137 122 131 133 140 124 113 119 112 81 76 127 163 238 224 78 277 83 315 126 328 54 23 267 237 187 173 214 157 195 205 237 155 178 187 208 227 219 211 217 222 220 184 205 220 225 227 219 208 198 225 243
227 221 218 219 220 220 214 216 216 214 208 197 141 158 176 194 188 196 186 186 119 101 86 127 9 10 183 241 52 142 183 145 156 165 161 155 149 150 148 157 151 146 89 73 110 110 148 209 136 143 182 211 98 267 80 151 190 220 228 218 188 224 197 183 219 162 62 193 174 191 192 211 239 235 211 211 204 190 210 225 225 224 219 204 201 212 219
224 221 219 217 215 214 215 213 213 209 203 163 109 107 160 275 184 175 197 178 149 113 118 130 110 247 289 34 300 278 86 136 144 159 156 157 164 169 165 148 149 143 121 155 165 165 214 140 226 260 274 289 144 196 133 205 193 246 247 243 229 235 232 222 101 164 224 205 173 191 206 227 233 233 206 209 204 181 195 222 225 222 228 196 203 225 225
220 219 214 213 220 217 211 208 208 210 199 155 157 121 171 196 200 185 176 160 142 132 151 222 220 135 25 257 140 174 165 139 161 168 175 180 162 148 151 96 42 152 116 69 121 209 156 185 171 252 42 189 118 123 173 161 240 292 253 238 228 233 229 210 204 217 188 119 160 184 225 243 259 345 301 249 184 192 212 237 239 215 219 189 211 217 227
215 215 216 213 213 213 211 207 206 204 169 160 190 188 188 225 198 154 164 165 142 139 159 159 210 192 217 230 154 312 123 141 104 109 109 141 148 135 76 154 180 204 136 155 207 106 242 197 123 207 162 186 106 112 122 146 216 244 254 254 227 225 177 181 203 222 207 185 128 98 269 261 224 206 244 255 194 197 201 221 226 213 210 215 229 230 232
212 213 213 211 210 212 213 209 203 185 165 134 79 73 318 327 169 153 163 145 144 180 163 169 168 192 179 227 105 318 151 78 58 140 208 221 168 125 110 18 90 68 262 127 242 192 229 140 147 169 239 105 108 179 194 212 230 242 248 257 242 172 194 204 198 200 207 198 172 192 223 236 242 227 227 252 242 178 201 218 234 210 224 246 253 253 252
212 211 212 211 208 208 217 220 205 150 110 111 227 248 288 309 162 150 129 119 104 150 134 143 173 149 217 321 58 273 163 144 159 158 156 246 145 108 190 107 210 152 279 186 251 98 318 104 170 197 87 297 161 106 210 234 234 242 249 254 249 179 163 207 213 220 220 200 199 209 223 231 250 260 217 234 253 206 183 202 156 183 225 227 240 237 238
206 204 204 210 209 206 204 202 192 148 169 143 98 272 130 153 154 146 148 162 140 215 126 263 146 128 115 12 145 266 153 107 174 188 151 221 113 139 181 117 239 191 250 101 18 180 191 208 155 119 201 168 125 218 228 236 239 241 246 253 254 214 182 255 253 239 220 169 189 227 239 249 258 263 251 243 243 209 165 208 202 198 219 236 235 244 233
205 199 197 201 205 194 194 196 143 119 90 174 163 165 155 153 152 131 77 44 93 148 153 197 139 181 177 185 179 255 106 48 152 85 143 134 28 204 124 135 183 217 97 151 180 191 214 172 112 205 177 178 208 207 227 226 233 237 238 241 245 222 226 231 248 259 154 171 195 213 228 234 229 241 248 249 248 243 214 220 214 191 220 238 245 243 237
193 191 173 158 147 81 121 152 114 169 189 136 132 109 89 81 39 53 32 28 352 98 145 165 135 214 178 191 87 276 106 156 169 98 162 130 159 151 123 198 193 189 111 184 176 206 219 159 116 167 200 209 225 227 229 230 231 233 237 229 234 238 239 245 246 260 255 193 215 230 226 230 242 251 253 252 244 240 226 230 227 204 215 230 240 244 235
166 136 117 124 99 109 121 173 169 143 124 124 109 76 347 16 109 115 136 108 235 100 316 84 146 168 29 102 201 218 100 261 100 134 162 161 129 235 160 176 211 200 224 190 211 147 94 152 204 207 230 229 243 245 240 236 241 235 235 231 237 239 239 237 238 219 240 265 266 252 249 240 249 244 228 244 244 233 226 229 232 224 224 234 238 241 249
129 117 78 49 127 175 157 166 145 129 113 91 44 85 57 185 95 45 240 139 69 71 251 117 182 131 102 92 142 358 143 178 145 171 174 217 134 256 148 170 243 165 254 173 256 140 191 200 198 198 235 231 242 247 244 229 242 229 222 233 239 244 230 231 212 206 216 226 237 245 234 218 227 243 229 233 248 242 235 236 238 236 228 235 243 249 259
128 129 138 119 120 179 116 133 129 110 103 84 5 95 100 10 115 187 105 68 9 303 119 126 173 147 181 159 160 217 202 119 157 190 178 227 306 169 229 106 254 151 209 195 231 129 160 184 193 150 240 233 239 245 239 215 230 239 234 238 244 246 227 222 232 224 223 239 247 257 262 230 217 228 236 222 227 242 245 230 232 236 231 237 252 252 244
132 93 89 118 178 113 121 111 46 52 76 92 75 29 96 50 29 168 91 103 126 230 241 155 61 79 161 98 133 169 272 83 263 103 94 161 257 71 39 175 264 87 250 182 237 72 66 84 170 190 227 231 233 242 236 224 231 246 242 226 229 236 235 234 243 242 211 241 255 256 252 239 222 232 235 235 223 230 244 252 231 237 231 237 229 211 82
143 112 128 109 97 112 97 35 61 87 49 40 117 139 128 135 63 32 147 139 216 174 285 155 199 162 211 169 182 128 207 156 110 84 119 174 238 130 229 342 4 115 208 203 85 70 91 132 228 265 250 249 244 243 221 222 236 236 249 235 237 246 243 243 244 252 213 223 240 246 270 333 252 323 354 359 260 264 12 68 119 55 90 70 79 84 81
102 106 104 94 73 24 131 73 308 114 124 103 94 112 106 96 190 150 213 266 314 106 241 41 224 75 328 57 38 18 162 162 134 188 98 200 48 52 102 32 125 7 228 20 65 93 139 202 214 237 242 249 251 244 234 245 293 340 305 252 231 257 244 238 238 249 266 248 279 326 36 89 66 45 19 66 102 77 45 47 103 118 104 95 81 78 80
103 91 74 21 88 285 94 126 183 66 63 109 143 156 160 127 269 58 73 243 208 241 217 145 196 140 169 94 136 146 39 2 121 76 24 309 77 180 140 203 204 226 73 29 99 134 213 232 216 229 241 255 262 321 354 350 322 305 297 272 237 306 283 241 245 197 104 51 62 66 70 76 89 46 40 28 53 131 114 77 75 103 103 100 88 74 61
98 47 75 61 76 236 96 298 33 113 168 199 141 150 147 171 188 170 194 215 111 208 147 101 127 126 137 233 44 325 126 204 304 100 219 122 63 245 122 236 208 49 126 199 177 279 355 273 258 255 253 255 313 21 353 359 358 334 298 314 3 3 8 355 7 43 58 57 63 74 76 75 76 68 51 53 42 72 122 127 138 114 108 104 103 86 55
86 148 119 117 146 190 130 121 71 76 284 156 193 185 163 197 175 194 205 91 117 138 130 152 121 111 110 292 129 190 91 117 77 202 158 66 126 231 214 48 75 96 228 156 190 214 225 240 238 248 286 5 16 346 342 332 338 330 356 330 340 4 5 44 62 72 83 97 86 87 98 88 97 97 80 60 63 66 69 83 88 111 115 100 94 96 75
80 35 107 109 89 218 64 139 209 196 163 197 232 190 172 152 153 136 158 104 122 160 102 81 109 149 137 183 74 354 24 36 142 233 88 106 187 229 40 110 218 186 179 219 205 226 234 238 250 27 358 342 342 347 347 343 352 359 356 349 10 14 14 53 57 77 87 92 96 94 95 102 104 106 112 90 62 49 52 61 62 69 99 110 112 104 89
102 148 88 103 151 149 151 211 132 97 26 107 280 300 267 174 105 80 314 134 136 126 127 122 96 56 38 298 78 172 169 262 108 287 145 186 55 40 166 62 229 231 189 197 226 220 232 40 11 323 341 336 331 346 354 353 347 350 348 354 359 14 31 66 79 80 93 104 104 103 105 106 112 108 100 105 95 60 54 57 73 85 93 91 89 86 89
81 84 94 120 79 103 73 130 127 88 346 347 318 44 93 113 123 109 183 77 127 139 136 117 167 102 155 128 121 163 250 227 128 218 80 36 144 201 167 210 179 249 251 191 232 223 204 317 296 304 306 2 15 13 346 339 338 337 348 349 351 352 30 63 71 72 72 85 98 109 106 104 105 107 104 97 93 71 39 56 71 70 78 96 101 100 93
63 32 34 62 65 22 280 10 79 124 313 350 34 52 2 82 90 124 244 84 133 116 105 73 71 90 187 109 116 153 212 188 175 109 75 218 193 199 79 322 240 190 250 253 226 288 2 330 323 335 358 360 10 17 354 346 351 353 342 351 358 26 45 74 77 68 70 82 94 100 108 108 104 104 110 108 105 104 79 58 60 72 71 86 105 104 107
17 86 89 14 126 184 139 149 170 187 257 239 143 181 133 136 145 153 320 129 136 90 56 118 165 111 102 46 112 149 252 142 90 187 162 194 175 124 181 193 237 210 217 220 104 338 349 351 356 327 337 340 355 354 352 339 347 341 356 3 17 49 59 68 78 84 83 79 87 92 86 86 90 98 103 110 108 97 82 57 44 59 76 68 82 105 105
41 53 31 2 20 39 51 96 56 78 115 142 112 283 66 92 324 286 322 159 146 135 174 149 94 114 108 184 202 174 46 50 214 109 46 261 130 141 214 197 222 304 6 304 315 30 3 337 6 339 323 324 337 339 329 350 10 6 15 19 31 55 67 72 72 76 81 78 69 85 88 90 100 108 114 115 112 100 92 94 58 57 79 81 79 81 105